Time,TemperatureF,DewpointF,PressureIn,WindDirection,WindDirectionDegrees,WindSpeedMPH,WindSpeedGustMPH,Humidity,HourlyPrecipIn,Conditions,Clouds,dailyrainin,SoftwareType,DateUTC
2013-07-23 00:01:00,83.0,42.0,-100.00,WNW,296,13.0,18.0,23,-99.99,,,-99.99,,2013-07-23 07:01:00,
2013-07-23 00:11:00,83.0,42.0,-100.00,WNW,296,13.0,18.0,23,-99.99,,,-99.99,,2013-07-23 07:11:00,
2013-07-23 01:01:00,81.0,43.0,-100.00,WNW,297,15.0,23.0,26,-99.99,,,-99.99,,2013-07-23 08:01:00,
2013-07-23 01:11:00,81.0,43.0,-100.00,WNW,297,15.0,23.0,26,-99.99,,,-99.99,,2013-07-23 08:11:00,
2013-07-23 02:11:00,78.0,45.0,-100.00,WNW,299,13.0,18.0,31,-99.99,,,-99.99,,2013-07-23 09:11:00,
2013-07-23 03:01:00,77.0,45.0,-100.00,NW,313,12.0,15.0,32,-99.99,,,-99.99,,2013-07-23 10:01:00,
2013-07-23 03:11:00,77.0,45.0,-100.00,NW,313,12.0,15.0,32,-99.99,,,-99.99,,2013-07-23 10:11:00,
2013-07-23 04:01:00,74.0,45.0,-100.00,WNW,291,7.0,12.0,35,-99.99,,,-99.99,,2013-07-23 11:01:00,
2013-07-23 04:11:00,74.0,45.0,-100.00,WNW,291,7.0,12.0,35,-99.99,,,-99.99,,2013-07-23 11:11:00,
2013-07-23 05:02:00,72.0,45.0,-100.00,WNW,303,5.0,8.0,37,-99.99,,,-99.99,,2013-07-23 12:02:00,
2013-07-23 05:11:00,72.0,45.0,-100.00,WNW,303,5.0,8.0,37,-99.99,,,-99.99,,2013-07-23 12:11:00,
2013-07-23 06:11:00,71.0,46.0,-100.00,NW,313,6.0,10.0,40,-99.99,,,-99.99,,2013-07-23 13:11:00,
2013-07-23 08:11:00,76.0,45.0,-100.00,SE,130,2.0,3.0,33,-99.99,,,-99.99,,2013-07-23 15:11:00,
2013-07-23 09:01:00,80.0,44.0,-100.00,West,275,5.0,12.0,27,-99.99,,,-99.99,,2013-07-23 16:01:00,
2013-07-23 09:12:00,80.0,44.0,-100.00,West,275,5.0,12.0,27,-99.99,,,-99.99,,2013-07-23 16:12:00,
2013-07-23 10:02:00,83.0,45.0,-100.00,WNW,300,5.0,8.0,26,-99.99,,,-99.99,,2013-07-23 17:02:00,
2013-07-23 10:11:00,83.0,45.0,-100.00,WNW,300,5.0,8.0,26,-99.99,,,-99.99,,2013-07-23 17:11:00,
2013-07-23 11:02:00,86.0,44.0,-100.00,ENE,74,5.0,7.0,23,-99.99,,,-99.99,,2013-07-23 18:02:00,
2013-07-23 11:11:00,86.0,44.0,-100.00,ENE,74,5.0,7.0,23,-99.99,,,-99.99,,2013-07-23 18:11:00,
2013-07-23 12:02:00,90.0,43.0,-100.00,NE,52,5.0,8.0,19,-99.99,,,-99.99,,2013-07-23 19:02:00,
2013-07-23 13:12:00,93.0,42.0,-100.00,SSW,201,3.0,8.0,17,-99.99,,,-99.99,,2013-07-23 20:12:00,
2013-07-23 14:03:00,94.0,41.0,-100.00,East,84,6.0,12.0,15,-99.99,,,-99.99,,2013-07-23 21:03:00,
2013-07-23 14:13:00,94.0,41.0,-100.00,East,84,6.0,12.0,15,-99.99,,,-99.99,,2013-07-23 21:13:00,
2013-07-23 15:03:00,95.0,39.0,-100.00,NE,34,3.0,12.0,14,-99.99,,,-99.99,,2013-07-23 22:03:00,
2013-07-23 15:11:00,95.0,39.0,-100.00,NE,34,3.0,12.0,14,-99.99,,,-99.99,,2013-07-23 22:11:00,
2013-07-23 16:04:00,98.0,41.0,-100.00,ESE,118,7.0,14.0,14,-99.99,,,-99.99,,2013-07-23 23:04:00,
2013-07-23 16:12:00,98.0,41.0,-100.00,ESE,118,7.0,14.0,14,-99.99,,,-99.99,,2013-07-23 23:12:00,
2013-07-23 17:05:00,100.0,38.0,-100.00,NW,313,3.0,7.0,11,-99.99,,,-99.99,,2013-07-24 00:05:00,
2013-07-23 17:13:00,100.0,38.0,-100.00,NW,313,3.0,7.0,11,-99.99,,,-99.99,,2013-07-24 00:13:00,
2013-07-23 18:03:00,100.0,38.0,-100.00,ESE,114,3.0,10.0,11,-99.99,,,-99.99,,2013-07-24 01:03:00,
2013-07-23 18:12:00,100.0,38.0,-100.00,ESE,114,3.0,10.0,11,-99.99,,,-99.99,,2013-07-24 01:12:00,
2013-07-23 19:03:00,100.0,36.0,-100.00,East,82,3.0,9.0,10,-99.99,,,-99.99,,2013-07-24 02:03:00,
2013-07-23 19:14:00,100.0,36.0,-100.00,East,82,3.0,9.0,10,-99.99,,,-99.99,,2013-07-24 02:14:00,
2013-07-23 21:01:00,95.0,42.0,-100.00,ESE,114,7.0,10.0,16,-99.99,,,-99.99,,2013-07-24 04:01:00,
2013-07-23 21:11:00,95.0,42.0,-100.00,ESE,114,7.0,10.0,16,-99.99,,,-99.99,,2013-07-24 04:11:00,
2013-07-23 22:02:00,90.0,38.0,-100.00,SSE,161,7.0,9.0,16,-99.99,,,-99.99,,2013-07-24 05:02:00,
2013-07-23 22:11:00,90.0,38.0,-100.00,SSE,161,7.0,9.0,16,-99.99,,,-99.99,,2013-07-24 05:11:00,